Regional Weather Roundup
Issued by NWS State College, PA

Home | Current Version | Previous Version | Graphics & Text | Print | Product List | Glossary Off
Versions: 1 2 3 4 5 6 7 8 9 10 11 12 13 14 15 16 17 18 19 20 21 22 23 24 25 26 27 28 29 30 31 32 33 34 35 36 37 38 39 40 41 42 43 44 45 46 47 48 49 50

000
ASUS41 KCTP 192003
RWRCTP
PHLRWRCTP ALL

REGIONAL WEATHER ROUNDUP
NATIONAL WEATHER SERVICE STATE COLLEGE PA
400 PM EDT TUE SEP 19 2017

Note: "fair" indicates few or no clouds below 12,000 feet with no
significant weather and/or obstructions to visibility.

* = STATION THAT DOES NOT REPORT PRECIPITATION /E.G. RAIN...SNOW...ETC/
    THUNDER OR FOG.

PAZ002>004-007>009-013>016-020>023-029>032-192100-
WESTERN PENNSYLVANIA

CITY           SKY/WX    TMP DP  RH WIND       PRES   REMARKS
ERIE           SUNNY     78  67  68 NE9       29.97F
MEADVILLE      SUNNY     79  62  56 SE3       29.99F
FRANKLIN*      SUNNY     79  61  53 S6        30.01F
NEW CASTLE     CLOUDY    83  64  52 VRB6      29.98F
BEAVER COUNTY  CLOUDY    82  61  47 CALM      29.98F
BUTLER*        SUNNY     79  61  53 VRB3      29.99F
PITTSBURGH INT MOSUNNY   84  60  44 VRB6      29.98F
PITTSBURGH     MOSUNNY   80  57  45 S6        29.98F
INDIANA*       MOSUNNY   79  61  53 VRB5      30.02F
LATROBE        MOSUNNY   79  61  53 CALM      30.00F
WASHINGTON CO* CLOUDY    81  63  54 E6        29.99S
$$

PAZ004>006-010>012-017>019-024>028-033>037-041-042-045-046-049>053-192100-
CENTRAL PENNSYLVANIA

CITY           SKY/WX    TMP DP  RH WIND       PRES   REMARKS
BRADFORD       SUNNY     78  58  49 CALM      30.03F
DUBOIS         SUNNY     77  57  50 VRB5      30.01F
CLEARFIELD     SUNNY     79  60  52 E5        30.01F
JOHNSTOWN      SUNNY     77  59  53 VRB3      30.02F
ALTOONA        SUNNY     75  62  64 VRB3      30.01F
STATE COLLEGE  MOSUNNY   75  63  64 CALM      30.00F
WILLIAMSPORT   SUNNY     83  63  50 W5        29.96F
SELINSGROVE    SUNNY     78  66  66 VRB6      29.98F
FT INDIANTOWN  SUNNY     80  66  63 N9        29.94F
CAPITAL CITY   SUNNY     79  63  57 NW8       29.94F
HARRISBURG     MOSUNNY   78  67  68 W12       29.93F
YORK           SUNNY     79  67  66 NW9       29.94F
$$

PAZ038>040-043-044-047-048-054-055-060>062-067>071-192100-
EASTERN PENNSYLVANIA

CITY           SKY/WX    TMP DP  RH WIND       PRES   REMARKS
SCRANTON       SUNNY     83  58  42 NE10G17   29.97F
MOUNT POCONO   MOSUNNY   75  62  64 E12       30.01F
ALLENTOWN      MOSUNNY   82  63  52 NE14      29.93F
QUAKERTOWN*    PTCLDY    77  66  69 N13       29.94F
READING        MOSUNNY   82  66  58 NE7       29.91F
LANCASTER      SUNNY     82  67  60 N12       29.93F
COATESVILLE    CLOUDY    77  66  69 N8        29.94F
POTTSTOWN      PTSUNNY   78  65  63 NE9       29.93F
BLUE BELL      CLOUDY    75  64  69 N3        29.91F
DOYLESTOWN     NOT AVBL
WILLOW GROVE   NOT AVBL
NORTH PHILA    CLOUDY    78  65  63 NE18G26   29.90F
PHILADELPHIA   LGT RAIN  75  66  73 E7        29.88F
$$




USA.gov is the U.S. government's official web portal to all federal, state and local government web resources and services.